DateTimeUTC,F1_A11,F1_S11,BsB_S11,BsG_S11,BsR_S11,BbsB_S11,BbsG_S11,BbsR_S11,BaB_A11,BaG_A11,BaR_A11,Tu_S11,T_S11,Uu_S11,U_S11,P_S11,T1_A11
2021-07-03T10:00:00Z,00000200,20000000,,,,,,,0000.21,0000.12,0000.44,18.5,25.1,04.5,03.0,0673.4,31.1
2021-07-03T10:01:00Z,00000200,20000000,,,,,,,-000.10,0000.22,-000.27,18.5,25.1,04.6,03.1,0673.4,31.1
2021-07-03T10:02:00Z,00000200,20000000,,,,,,,0000.13,-000.20,0000.30,18.5,25.1,04.8,03.2,0673.4,31.1
2021-07-03T10:03:00Z,00000200,60000000,,,,,,,0000.06,0000.22,0000.14,18.5,25.1,04.8,03.2,0673.4,31.1
2021-07-03T10:04:00Z,00000200,40000000,0000.16,0000.12,0000.02,0000.27,-000.00,-000.23,0000.52,0000.24,0000.04,18.5,24.9,05.0,03.4,0674.3,31.0
2021-07-03T10:05:00Z,00000200,00000000,0000.25,0000.32,-000.09,0001.05,0000.01,-000.26,-000.03,-000.00,0000.15,18.5,24.8,05.0,03.4,0674.4,31.0
2021-07-03T10:06:00Z,00000200,00000000,0000.55,0000.07,0000.16,0000.81,-000.10,0000.05,0000.13,0000.44,0000.20,18.4,24.7,05.3,03.6,0674.4,31.0
2021-07-03T10:07:00Z,00000200,00010000,0000.10,0000.41,-000.09,0000.09,0000.27,-000.31,0000.17,-000.07,0000.12,18.4,24.7,05.2,03.5,0674.4,31.0
2021-07-03T10:08:00Z,00000200,00000000,0000.26,0000.20,0000.02,-000.47,0000.34,-000.05,0000.29,0000.07,-000.17,18.4,24.7,05.3,03.6,0674.4,31.1
2021-07-03T10:09:00Z,00000200,00000000,0000.03,0000.63,0000.11,0000.32,0000.15,0000.24,0000.15,0000.02,0000.44,18.5,24.8,05.4,03.7,0674.4,31.1
2021-07-03T10:10:00Z,00000200,00000000,0000.62,0000.18,0000.17,0000.84,0000.23,-000.18,0000.13,0000.34,0000.26,18.6,24.8,05.5,03.7,0674.4,31.1
2021-07-03T10:11:00Z,00000200,00000000,0001.04,0000.14,0000.16,0000.54,0000.04,-000.05,-000.08,0000.01,-000.07,18.7,24.8,05.5,03.7,0674.5,31.1
2021-07-03T10:12:00Z,00000200,00000000,0000.91,0000.41,-000.41,0000.06,0000.12,-000.18,0000.15,-000.02,0000.11,18.7,24.9,05.6,03.9,0674.4,31.1
2021-07-03T10:13:00Z,00000200,00000000,0000.60,0000.11,0000.51,0000.75,0000.25,-000.03,-000.11,-000.01,-000.11,18.7,24.9,05.5,03.8,0674.4,31.1
2021-07-03T10:14:00Z,00000200,00000000,-000.00,0000.55,0000.21,0000.01,-000.12,-000.37,0000.52,0000.35,0000.28,18.7,24.9,05.5,03.8,0674.4,31.1
2021-07-03T10:15:00Z,00000200,00000000,0000.01,0000.43,0000.05,0000.67,0000.23,-000.10,0000.08,0000.12,-000.19,18.7,24.9,05.6,03.8,0674.3,31.1
2021-07-03T10:16:00Z,00000200,00000000,-000.08,0000.53,0000.24,0000.57,0000.07,-000.12,0000.16,-000.16,0000.09,18.7,24.9,05.6,03.8,0674.4,31.1
2021-07-03T10:17:00Z,00000200,00000000,0000.60,0000.55,0000.37,0000.27,-000.15,-000.20,-000.10,0000.20,0000.18,18.6,24.8,05.6,03.8,0674.3,31.1
2021-07-03T10:18:00Z,00000200,00000000,0000.80,0000.00,0000.33,-000.06,0000.10,0000.08,0000.17,-000.22,0000.07,18.6,24.8,05.7,03.9,0674.4,31.1
2021-07-03T10:19:00Z,00000200,00000000,0000.28,0000.25,0000.10,0000.46,0000.12,0000.19,-000.02,0000.35,-000.04,18.5,24.8,05.8,03.9,0674.2,31.1
2021-07-03T10:20:00Z,00000200,00000000,0000.80,0000.27,-000.03,-000.21,-000.02,0000.07,0000.27,0000.07,0000.41,18.5,24.8,05.7,03.9,0674.2,31.0
2021-07-03T10:21:00Z,00000200,00000000,0001.47,0000.19,0000.03,0000.29,-000.16,-000.19,0000.34,0000.42,-000.09,18.5,24.7,05.9,04.0,0674.3,31.0
2021-07-03T10:22:00Z,00000200,00000000,0000.15,0000.15,0000.18,0000.38,-000.12,0000.23,-000.35,-000.24,-000.06,18.5,24.7,06.0,04.1,0674.2,31.0
2021-07-03T10:23:00Z,00000200,00000000,0000.23,0000.34,0000.11,0000.38,0000.28,0000.07,0000.30,0000.12,-000.01,18.5,24.7,05.9,04.0,0674.2,31.0
2021-07-03T10:24:00Z,00000200,00000000,0000.78,0000.69,-000.03,0000.35,0000.16,-000.05,0000.12,0000.09,0000.15,18.6,24.7,05.9,04.0,0674.2,31.1
2021-07-03T10:25:00Z,00000200,00000000,0000.90,0000.47,0000.35,0000.28,0000.04,0000.19,0000.06,0000.11,0000.08,18.6,24.8,06.0,04.1,0674.3,31.1
2021-07-03T10:26:00Z,00000200,00000000,0000.11,0000.02,0000.24,0000.64,0000.33,-000.07,0000.28,0000.28,0000.20,18.7,24.8,06.0,04.1,0674.3,31.1
2021-07-03T10:27:00Z,00000200,00000000,0000.43,0000.23,-000.06,0000.02,0000.03,0000.04,-000.04,-000.17,-000.11,18.8,24.9,06.0,04.1,0674.2,31.1
2021-07-03T10:28:00Z,00000200,00000000,0000.59,0000.28,0000.08,-000.07,0000.13,-000.07,-000.02,0000.38,0000.04,18.8,24.9,05.9,04.1,0674.2,31.1
2021-07-03T10:29:00Z,00000200,00000000,0001.35,0000.26,0000.10,0000.64,0000.02,0000.09,-000.03,-000.11,0000.08,18.8,24.9,05.9,04.1,0674.2,31.1
2021-07-03T10:30:00Z,00000200,00000000,0000.29,0000.39,0000.16,0000.65,-000.14,0000.00,0000.15,0000.17,-000.13,18.8,24.9,05.9,04.1,0674.3,31.1
2021-07-03T10:31:00Z,00000200,00000000,0000.88,0000.48,0000.20,0000.04,-000.04,0000.20,0000.11,0000.06,0000.42,18.8,24.9,05.9,04.0,0674.3,31.1
2021-07-03T10:32:00Z,00000200,00000000,-000.19,0000.17,0000.19,0000.05,0000.38,-000.27,0000.26,-000.13,-000.01,18.8,24.9,06.0,04.1,0674.3,31.1
2021-07-03T10:33:00Z,00000200,00000000,0000.14,0000.54,0000.09,0000.81,-000.02,0000.14,-000.14,-000.04,-000.13,18.7,24.8,06.0,04.1,0674.3,31.1
2021-07-03T10:34:00Z,00000200,00000000,0001.00,0000.28,0000.25,0000.27,0000.00,0000.06,-000.22,-000.14,-000.18,18.7,24.8,06.1,04.2,0674.2,31.1
2021-07-03T10:35:00Z,00000200,00000000,0000.52,0000.26,-000.11,0000.74,0000.08,-000.04,0000.18,0000.35,0000.07,18.7,24.8,06.0,04.1,0674.2,31.1
2021-07-03T10:36:00Z,00000200,00000000,0001.11,0000.36,-000.31,0000.43,0000.34,-000.46,0000.24,0000.17,0000.33,18.6,24.8,06.0,04.1,0674.2,31.0
2021-07-03T10:37:00Z,00000200,00000000,0000.02,0000.56,0000.20,0000.01,-000.20,0000.06,-000.07,-000.01,0000.01,18.6,24.8,06.1,04.2,0674.3,31.0
2021-07-03T10:38:00Z,00000200,00000000,0000.70,0000.13,-000.02,0000.43,0000.07,0000.05,0000.03,0000.00,0000.02,18.6,24.8,06.0,04.2,0674.2,31.1
2021-07-03T10:39:00Z,00000200,00000000,-000.35,0000.18,0000.15,0000.48,-000.00,0000.12,0000.09,-000.21,0000.01,18.7,24.8,06.0,04.1,0674.2,31.1
2021-07-03T10:40:00Z,00000200,00000000,0000.71,0000.54,-000.25,0000.46,0000.06,-000.12,-000.04,0000.33,0000.14,18.7,24.9,06.0,04.2,0674.3,31.1
2021-07-03T10:41:00Z,00000200,00000000,0000.25,0000.19,0000.35,0000.37,-000.03,-000.09,0000.07,-000.22,-000.41,18.7,24.9,05.9,04.1,0674.2,31.1
2021-07-03T10:42:00Z,00000200,00000000,0000.14,0000.16,0000.22,0000.49,0000.01,-000.07,0000.11,0000.03,0000.26,18.7,24.9,05.9,04.0,0674.3,31.1
2021-07-03T10:43:00Z,00000200,00000000,0000.42,0000.26,0000.36,0000.00,0000.23,0000.07,-000.34,0000.41,0000.13,18.8,24.9,06.0,04.2,0674.3,31.1
2021-07-03T10:44:00Z,00000200,00000000,0000.26,0000.36,0000.09,0000.27,0000.27,-000.19,0000.81,-000.30,0000.29,18.7,24.8,06.0,04.1,0674.3,31.1
2021-07-03T10:45:00Z,00000200,00000000,0000.89,0000.43,0000.05,0000.61,-000.12,0000.01,-000.35,0000.58,-000.15,18.7,24.8,06.0,04.1,0674.3,31.1
2021-07-03T10:46:00Z,00000200,00000000,0000.45,0000.16,0000.32,0000.03,-000.10,-000.17,0000.46,-000.27,0000.04,18.7,24.8,06.1,04.2,0674.3,31.1
2021-07-03T10:47:00Z,00000200,00000000,-000.05,0000.43,0000.17,0000.05,0000.07,0000.05,-000.32,-000.02,0000.16,18.6,24.8,06.1,04.2,0674.3,31.0
2021-07-03T10:48:00Z,00000200,00000000,0000.05,0000.33,0000.08,0000.39,0000.05,-000.20,0000.04,0000.19,0000.06,18.6,24.8,06.1,04.2,0674.2,31.0
2021-07-03T10:49:00Z,00000200,00000000,0000.61,0000.46,0000.11,0000.15,0000.13,-000.08,-000.06,0000.01,-000.03,18.6,24.8,06.2,04.2,0674.2,31.0
2021-07-03T10:50:00Z,00000200,00000000,0000.13,0000.16,-000.07,0000.53,0000.07,0000.01,0000.08,0000.16,0000.20,18.5,24.7,06.3,04.3,0674.2,31.0
2021-07-03T10:51:00Z,00000200,00000000,0000.63,0000.21,-000.10,0000.27,0000.33,-000.21,0000.17,-000.07,-000.31,18.5,24.7,06.2,04.3,0674.2,31.0
2021-07-03T10:52:00Z,00000200,00000000,0000.51,0000.73,-000.03,0000.56,-000.12,0000.00,0000.09,0000.01,0000.06,18.5,24.7,06.2,04.2,0674.2,31.1
2021-07-03T10:53:00Z,00000200,00000000,0000.29,0000.25,-000.16,0000.53,0000.14,-000.24,0000.16,-000.06,0000.27,18.5,24.7,06.3,04.3,0674.2,31.1
2021-07-03T10:54:00Z,00000200,00000000,0000.95,0000.35,0000.08,0000.52,0000.00,-000.16,0000.09,0000.33,0000.09,18.6,24.7,06.3,04.3,0674.3,31.1
2021-07-03T10:55:00Z,00000200,00000000,0000.46,0000.38,0000.04,-000.07,-000.24,-000.10,0000.23,0000.31,0000.21,18.7,24.8,06.2,04.3,0674.2,31.1
2021-07-03T10:56:00Z,00000200,00000000,0000.60,0000.43,-000.04,0000.46,-000.07,-000.11,-000.29,-000.33,-000.34,18.7,24.8,06.2,04.3,0674.3,31.1
2021-07-03T10:57:00Z,00000200,40000000,,,,,,,-000.03,-000.16,-000.43,18.8,24.9,06.0,04.1,0674.4,31.1
2021-07-03T10:58:00Z,00000200,60000000,,,,,,,-000.02,0000.08,0000.43,18.5,24.9,06.0,04.1,0673.3,31.1
2021-07-03T10:59:00Z,00000200,20000000,,,,,,,0000.44,0000.30,0000.06,18.5,25.0,06.1,04.1,0673.2,31.1
